QPF
0.00 0.00 0.00 0.00 0.00 0.00 0.00 0.00 0.00 0.00 0.00 0.00 0.00 0.00 0.00 0.00 0.00 0.00 0.00 0.00 0.00 0.00 0.00 0.00 0.00 0.00 0.00 0.00 0.00 0.00 0.00 0.00 0.00 0.00 0.00 0.00 0.00 0.00 0.00 0.00 0.00 0.00 0.00 0.00 0.00 0.00 0.00 0.00 0.00 0.00 0.00 0.00 0.00 0.00
0.00 0.00 0.00 0.00 0.00 0.00 0.00 0.00 0.00 0.00 0.00 0.00 0.00 0.00 0.00 0.00 0.00 0.00 0.00 0.00 0.00 0.00 0.00 0.00 0.00 0.00 0.00 0.00 0.00 0.00 0.00 0.00 0.00 0.00 0.00 0.00 0.00 0.00 0.00 0.00 0.00 0.00 0.00 0.00 0.00 0.00 0.00 0.00 0.00 0.00 0.00 0.00 0.00 0.00
0.00 0.00 0.00 0.00 0.00 0.00 0.00 0.00 0.00 0.00 0.00 0.00 0.00 0.00 0.00 0.00 0.00 0.00 0.00 0.00 0.00 0.00 0.00 0.00 0.00 0.00 0.00 0.00 0.00 0.00 0.00 0.00 0.00 0.00 0.00 0.00 0.00 0.00 0.00 0.00 0.00 0.00 0.00 0.00 0.00 0.00 0.00 0.00 0.00 0.01 0.00 0.00 0.00 0.01
0.00 0.00 0.00 0.00 0.00 0.00 0.00 0.00 0.00 0.00 0.00 0.00 0.00 0.00 0.00 0.00 0.00 0.00 0.00 0.00 0.00 0.00 0.00 0.00 0.00 0.00 0.00 0.00 0.00 0.00 0.00 0.00 0.00 0.00 0.00 0.00 0.00 0.00 0.00 0.00 0.00 0.00 0.00 0.00 0.00 0.00 0.00 0.00 0.00 0.00 0.00 0.00 0.00 0.01
0.00 0.00 0.00 0.00 0.00 0.00 0.00 0.00 0.00 0.00 0.00 0.00 0.00 0.00 0.00 0.00 0.00 0.00 0.00 0.00 0.00 0.00 0.00 0.00 0.00 0.00 0.00 0.00 0.00 0.00 0.00 0.00 0.00 0.00 0.00 0.00 0.00 0.00 0.00 0.00 0.00 0.00 0.00 0.00 0.00 0.00 0.00 0.00 0.00 0.00 0.00 0.00 0.00 0.00
0.00 0.00 0.00 0.00 0.00 0.00 0.00 0.00 0.00 0.00 0.00 0.00 0.00 0.00 0.00 0.00 0.00 0.00 0.00 0.00 0.00 0.00 0.00 0.00 0.00 0.00 0.00 0.00 0.00 0.00 0.00 0.00 0.00 0.00 0.00 0.00 0.00 0.00 0.00 0.00 0.00 0.00 0.00 0.00 0.00 0.00 0.00 0.00 0.00 0.00 0.00 0.00 0.00 0.00
0.00 0.00 0.00 0.00 0.00 0.00 0.00 0.00 0.00 0.00 0.00 0.00 0.00 0.00 0.00 0.00 0.00 0.00 0.00 0.00 0.00 0.00 0.00 0.00 0.00 0.00 0.00 0.00 0.00 0.00 0.00 0.00 0.00 0.00 0.00 0.00 0.00 0.00 0.00 0.00 0.00 0.00 0.00 0.00 0.00 0.00 0.00 0.00 0.00 0.00 0.00 0.00 0.00 0.00
0.00 0.00 0.00 0.00 0.00 0.00 0.00 0.00 0.00 0.00 0.00 0.00 0.00 0.00 0.00 0.00 0.00 0.00 0.00 0.00 0.00 0.00 0.00 0.00 0.00 0.00 0.00 0.00 0.00 0.00 0.00 0.00 0.00 0.00 0.00 0.00 0.00 0.00 0.00 0.00 0.00 0.00 0.00 0.00 0.00 0.00 0.00 0.00 0.00 0.00 0.00 0.00 0.00 0.00
0.00 0.00 0.00 0.00 0.00 0.00 0.00 0.00 0.00 0.00 0.00 0.00 0.00 0.00 0.00 0.00 0.00 0.00 0.00 0.00 0.00 0.00 0.00 0.00 0.00 0.00 0.00 0.00 0.00 0.02 0.04 0.04 0.01 0.00 0.00 0.00 0.00 0.02 0.00 0.01 0.03 0.03 0.04 0.03 0.01 0.00 0.00 0.00 0.00 0.00 0.00 0.00 0.00 0.00
0.00 0.00 0.00 0.00 0.00 0.00 0.00 0.00 0.00 0.00 0.00 0.00 0.00 0.00 0.01 0.00 0.00 0.00 0.01 0.00 0.00 0.00 0.00 0.00 0.00 0.00 0.00 0.01 0.04 0.07 0.10 0.10 0.07 0.06 0.03 0.04 0.04 0.02 0.00 0.00 0.00 0.00 0.00 0.00 0.00 0.00 0.01 0.01 0.01 0.00 0.00 0.00 0.00 0.00
0.00 0.00 0.00 0.00 0.00 0.00 0.00 0.00 0.00 0.00 0.00 0.00 0.00 0.00 0.00 0.00 0.00 0.02 0.03 0.01 0.00 0.00 0.00 0.00 0.00 0.03 0.03 0.06 0.06 0.06 0.03 0.03 0.03 0.03 0.01 0.02 0.02 0.01 0.00 0.00 0.00 0.00 0.00 0.00 0.00 0.00 0.01 0.01 0.02 0.02 0.00 0.00 0.00 0.00
0.00 0.00 0.00 0.00 0.00 0.00 0.00 0.00 0.00 0.00 0.00 0.00 0.00 0.00 0.00 0.00 0.01 0.02 0.01 0.01 0.01 0.01 0.03 0.00 0.00 0.02 0.07 0.02 0.04 0.01 0.00 0.01 0.03 0.00 0.00 0.00 0.00 0.00 0.00 0.00 0.00 0.00 0.00 0.00 0.01 0.01 0.00 0.00 0.01 0.04 0.03 0.01 0.00 0.00
0.00 0.00 0.00 0.00 0.00 0.00 0.00 0.00 0.00 0.00 0.00 0.00 0.00 0.00 0.00 0.00 0.00 0.00 0.01 0.02 0.04 0.01 0.01 0.00 0.01 0.06 0.04 0.00 0.00 0.00 0.00 0.01 0.00 0.00 0.00 0.00 0.00 0.00 0.00 0.00 0.00 0.00 0.00 0.01 0.02 0.07 0.09 0.04 0.04 0.08 0.05 0.07 0.06 0.07
0.00 0.00 0.00 0.00 0.00 0.00 0.00 0.00 0.00 0.00 0.00 0.00 0.00 0.00 0.00 0.00 0.00 0.00 0.01 0.03 0.02 0.00 0.00 0.00 0.02 0.03 0.01 0.00 0.01 0.00 0.00 0.00 0.00 0.00 0.00 0.00 0.00 0.00 0.00 0.02 0.01 0.00 0.00 0.01 0.04 0.10 0.09 0.12 0.11 0.12 0.09 0.09 0.07 0.05
0.00 0.00 0.00 0.00 0.00 0.00 0.00 0.00 0.00 0.00 0.00 0.00 0.00 0.00 0.00 0.00 0.00 0.00 0.00 0.00 0.00 0.00 0.00 0.00 0.04 0.06 0.03 0.00 0.00 0.00 0.00 0.00 0.00 0.00 0.00 0.00 0.00 0.01 0.04 0.06 0.05 0.01 0.00 0.01 0.03 0.05 0.02 0.05 0.07 0.09 0.15 0.11 0.05 0.04
0.00 0.00 0.00 0.00 0.00 0.00 0.00 0.00 0.00 0.00 0.00 0.00 0.00 0.00 0.00 0.00 0.00 0.00 0.00 0.00 0.00 0.00 0.00 0.02 0.06 0.03 0.00 0.00 0.01 0.02 0.02 0.01 0.00 0.00 0.02 0.05 0.07 0.09 0.10 0.11 0.09 0.05 0.03 0.03 0.08 0.10 0.10 0.11 0.12 0.12 0.08 0.09 0.12 0.12
0.00 0.00 0.00 0.00 0.00 0.00 0.00 0.00 0.01 0.00 0.00 0.00 0.00 0.00 0.00 0.00 0.00 0.00 0.00 0.00 0.00 0.00 0.00 0.00 0.02 0.02 0.01 0.01 0.04 0.03 0.03 0.02 0.01 0.06 0.13 0.16 0.11 0.10 0.06 0.06 0.03 0.05 0.07 0.08 0.10 0.12 0.14 0.12 0.12 0.11 0.14 0.16 0.18 0.19
0.00 0.00 0.00 0.00 0.00 0.00 0.00 0.00 0.00 0.00 0.00 0.00 0.00 0.00 0.00 0.00 0.00 0.00 0.00 0.00 0.00 0.00 0.00 0.00 0.00 0.01 0.04 0.06 0.05 0.02 0.03 0.04 0.07 0.14 0.15 0.14 0.07 0.04 0.02 0.02 0.01 0.06 0.07 0.03 0.05 0.09 0.07 0.06 0.08 0.05 0.04 0.03 0.03 0.07
0.00 0.00 0.00 0.00 0.00 0.00 0.01 0.00 0.00 0.00 0.00 0.00 0.00 0.00 0.00 0.00 0.00 0.00 0.00 0.00 0.00 0.00 0.00 0.00 0.00 0.01 0.05 0.04 0.00 0.02 0.06 0.03 0.06 0.14 0.13 0.09 0.03 0.01 0.01 0.01 0.02 0.03 0.02 0.01 0.01 0.04 0.02 0.02 0.04 0.07 0.07 0.01 0.01 0.08
0.00 0.00 0.00 0.00 0.00 0.00 0.00 0.00 0.00 0.00 0.00 0.00 0.00 0.00 0.00 0.00 0.00 0.00 0.00 0.00 0.00 0.00 0.00 0.00 0.00 0.00 0.00 0.00 0.00 0.05 0.09 0.10 0.10 0.06 0.06 0.06 0.02 0.02 0.03 0.02 0.01 0.00 0.00 0.02 0.01 0.00 0.00 0.01 0.01 0.03 0.03 0.01 0.02 0.10
0.00 0.00 0.00 0.00 0.00 0.00 0.00 0.00 0.00 0.00 0.00 0.00 0.00 0.00 0.00 0.00 0.00 0.00 0.00 0.00 0.00 0.00 0.00 0.00 0.00 0.00 0.00 0.00 0.01 0.05 0.11 0.07 0.07 0.01 0.02 0.06 0.05 0.02 0.04 0.06 0.02 0.00 0.00 0.00 0.00 0.00 0.00 0.01 0.00 0.00 0.00 0.01 0.00 0.01
0.00 0.00 0.00 0.00 0.00 0.00 0.00 0.00 0.00 0.00 0.00 0.00 0.00 0.00 0.00 0.00 0.00 0.00 0.00 0.00 0.00 0.02 0.02 0.01 0.00 0.00 0.00 0.01 0.06 0.11 0.10 0.12 0.08 0.02 0.00 0.02 0.03 0.00 0.01 0.02 0.00 0.00 0.00 0.00 0.00 0.00 0.00 0.00 0.00 0.00 0.00 0.00 0.00 0.00
0.00 0.00 0.01 0.01 0.01 0.00 0.00 0.00 0.00 0.00 0.00 0.00 0.00 0.01 0.02 0.05 0.02 0.02 0.09 0.10 0.08 0.03 0.02 0.00 0.00 0.01 0.09 0.14 0.08 0.03 0.03 0.05 0.03 0.01 0.00 0.00 0.00 0.00 0.00 0.00 0.00 0.00 0.00 0.01 0.01 0.00 0.00 0.00 0.00 0.00 0.00 0.00 0.00 0.00
0.00 0.01 0.02 0.02 0.01 0.00 0.00 0.00 0.00 0.00 0.00 0.00 0.02 0.05 0.05 0.06 0.08 0.09 0.13 0.13 0.04 0.00 0.00 0.00 0.02 0.12 0.13 0.03 0.00 0.00 0.00 0.00 0.00 0.00 0.00 0.00 0.00 0.00 0.00 0.00 0.00 0.00 0.00 0.00 0.00 0.00 0.00 0.00 0.00 0.00 0.00 0.00 0.00 0.00
0.00 0.00 0.01 0.00 0.01 0.00 0.00 0.00 0.00 0.00 0.01 0.03 0.05 0.05 0.00 0.02 0.05 0.06 0.07 0.03 0.01 0.00 0.00 0.02 0.07 0.03 0.00 0.02 0.00 0.00 0.00 0.00 0.00 0.00 0.00 0.00 0.00 0.00 0.00 0.00 0.00 0.00 0.00 0.00 0.00 0.00 0.00 0.00 0.00 0.00 0.00 0.00 0.00 0.00
0.00 0.00 0.00 0.00 0.00 0.00 0.00 0.00 0.01 0.01 0.02 0.04 0.05 0.05 0.02 0.01 0.00 0.00 0.01 0.00 0.00 0.00 0.00 0.01 0.02 0.01 0.05 0.02 0.00 0.00 0.00 0.00 0.00 0.00 0.00 0.00 0.00 0.00 0.00 0.00 0.00 0.00 0.00 0.00 0.00 0.00 0.00 0.00 0.00 0.00 0.00 0.00 0.00 0.00
0.00 0.00 0.00 0.00 0.00 0.00 0.00 0.00 0.00 0.03 0.04 0.01 0.07 0.06 0.02 0.01 0.02 0.03 0.00 0.00 0.00 0.00 0.01 0.00 0.00 0.00 0.03 0.01 0.00 0.00 0.00 0.00 0.00 0.00 0.00 0.00 0.00 0.00 0.00 0.00 0.00 0.00 0.00 0.00 0.00 0.00 0.00 0.00 0.00 0.00 0.00 0.00 0.00 0.00
0.01 0.00 0.00 0.00 0.00 0.00 0.00 0.01 0.01 0.05 0.11 0.09 0.06 0.02 0.01 0.02 0.03 0.01 0.00 0.00 0.00 0.00 0.00 0.00 0.00 0.00 0.00 0.00 0.00 0.00 0.00 0.00 0.00 0.00 0.00 0.00 0.00 0.00 0.00 0.00 0.00 0.00 0.00 0.00 0.00 0.00 0.00 0.00 0.00 0.00 0.00 0.00 0.00 0.00
0.00 0.00 0.00 0.00 0.00 0.00 0.00 0.00 0.01 0.13 0.06 0.03 0.02 0.01 0.01 0.00 0.00 0.00 0.00 0.00 0.00 0.00 0.00 0.00 0.00 0.00 0.00 0.00 0.00 0.00 0.00 0.00 0.00 0.00 0.00 0.00 0.00 0.00 0.00 0.00 0.00 0.00 0.00 0.00 0.00 0.00 0.00 0.00 0.00 0.00 0.00 0.00 0.00 0.00
0.00 0.00 0.00 0.00 0.00 0.00 0.00 0.00 0.01 0.03 0.00 0.00 0.00 0.00 0.00 0.00 0.00 0.00 0.00 0.00 0.00 0.00 0.00 0.00 0.00 0.00 0.00 0.00 0.00 0.00 0.00 0.00 0.00 0.00 0.00 0.00 0.00 0.00 0.00 0.00 0.00 0.00 0.00 0.00 0.00 0.00 0.00 0.00 0.00 0.00 0.00 0.00 0.00 0.00
0.00 0.00 0.00 0.00 0.00 0.00 0.00 0.00 0.00 0.00 0.00 0.00 0.00 0.00 0.00 0.00 0.00 0.01 0.00 0.00 0.00 0.00 0.00 0.00 0.00 0.00 0.00 0.00 0.00 0.00 0.00 0.00 0.00 0.00 0.00 0.00 0.00 0.00 0.00 0.00 0.00 0.00 0.00 0.00 0.00 0.00 0.00 0.00 0.00 0.00 0.00 0.00 0.00 0.00
0.00 0.00 0.00 0.00 0.00 0.00 0.00 0.00 0.00 0.00 0.00 0.00 0.00 0.01 0.02 0.01 0.02 0.01 0.00 0.00 0.02 0.03 0.01 0.00 0.00 0.00 0.00 0.00 0.00 0.00 0.00 0.00 0.00 0.00 0.00 0.00 0.00 0.00 0.00 0.00 0.00 0.00 0.00 0.00 0.00 0.00 0.00 0.00 0.00 0.00 0.00 0.00 0.00 0.00
0.00 0.00 0.00 0.00 0.00 0.00 0.00 0.00 0.00 0.01 0.01 0.00 0.00 0.00 0.01 0.01 0.01 0.00 0.00 0.00 0.01 0.00 0.00 0.00 0.00 0.00 0.00 0.00 0.00 0.00 0.00 0.00 0.00 0.00 0.00 0.00 0.00 0.00 0.00 0.00 0.00 0.00 0.00 0.00 0.00 0.00 0.00 0.00 0.00 0.00 0.00 0.00 0.00 0.00
MSLP
1022.15 1022.05 1021.96 1021.85 1021.76 1021.72 1021.72 1021.75 1021.81 1021.85 1021.86 1021.80 1021.62 1021.37 1021.06 1020.67 1020.21 1019.60 1017.11 1016.41 1016.20 1014.41 1012.10 1011.36 1010.69 1010.32 1009.64 1008.90 1008.28 1007.02 1006.91 1005.69 1005.86 1005.50 1004.92 1004.13 1003.24 1002.40 1001.69 1001.22 1001.02 1001.11 1001.45 1001.96 1002.13 1001.26 1001.18 1001.77 1000.96 1001.77 1001.67 1000.41 1000.97 1001.78
1021.85 1021.77 1021.68 1021.58 1021.48 1021.43 1021.49 1021.55 1021.66 1021.79 1021.84 1021.78 1021.62 1021.40 1021.17 1020.87 1020.53 1020.00 1017.36 1016.04 1015.94 1015.45 1013.12 1012.16 1011.61 1011.16 1010.73 1010.32 1009.89 1008.93 1008.17 1007.52 1006.77 1006.35 1005.56 1005.16 1004.07 1002.96 1002.23 1001.53 1001.39 1001.67 1001.81 1002.66 1002.51 1001.89 1002.07 1002.46 1002.49 1002.79 1002.89 1002.68 1002.57 1002.65
1021.58 1021.52 1021.43 1021.31 1021.22 1021.19 1021.28 1021.37 1021.57 1021.73 1021.78 1021.75 1021.62 1021.37 1021.16 1020.96 1020.74 1020.52 1018.85 1017.35 1015.91 1014.36 1012.05 1010.14 1009.37 1008.92 1009.65 1009.75 1009.92 1009.73 1008.81 1008.15 1007.75 1007.46 1007.37 1006.89 1005.69 1004.49 1003.41 1002.58 1002.34 1002.63 1002.63 1002.84 1002.89 1002.38 1002.52 1002.83 1003.45 1003.48 1003.81 1004.18 1004.51 1003.44
1021.27 1021.20 1021.13 1021.07 1021.05 1021.09 1021.17 1021.37 1021.56 1021.63 1021.68 1021.67 1021.53 1021.33 1021.12 1020.89 1020.65 1020.45 1018.93 1017.17 1016.24 1015.25 1012.69 1009.12 1008.77 1009.20 1009.31 1009.20 1009.37 1009.58 1009.50 1009.34 1009.13 1008.65 1008.01 1007.19 1006.17 1005.32 1004.41 1003.93 1003.73 1003.66 1003.39 1003.46 1003.14 1002.94 1002.85 1002.74 1002.93 1003.60 1004.16 1004.60 1005.11 1005.06
1021.01 1020.97 1020.94 1020.94 1020.97 1021.06 1021.23 1021.38 1021.51 1021.57 1021.59 1021.51 1021.37 1021.21 1021.00 1020.72 1020.46 1019.90 1018.35 1016.52 1016.14 1016.51 1013.99 1011.51 1010.07 1008.66 1008.37 1008.86 1009.25 1009.39 1009.58 1009.35 1009.00 1008.61 1007.80 1007.01 1006.21 1005.66 1005.22 1004.80 1004.22 1004.02 1003.73 1003.58 1003.09 1003.11 1003.04 1002.97 1003.04 1003.32 1003.98 1004.29 1004.88 1006.00
1020.80 1020.82 1020.88 1020.92 1021.02 1021.21 1021.31 1021.38 1021.45 1021.47 1021.44 1021.35 1021.21 1021.02 1020.81 1020.56 1020.27 1019.12 1017.19 1016.66 1017.01 1016.76 1015.93 1012.56 1009.60 1008.61 1008.65 1008.80 1009.10 1009.35 1009.34 1009.22 1008.89 1008.33 1007.63 1006.92 1006.65 1006.91 1006.34 1005.29 1005.02 1004.65 1004.32 1004.25 1004.05 1003.61 1003.32 1002.96 1002.84 1002.82 1002.88 1003.11 1003.29 1003.54
1020.65 1020.72 1020.82 1020.94 1021.11 1021.27 1021.36 1021.39 1021.41 1021.33 1021.29 1021.17 1020.99 1020.78 1020.58 1020.40 1019.88 1018.74 1018.34 1018.26 1018.26 1017.39 1016.52 1013.83 1010.12 1008.72 1008.79 1008.86 1009.15 1009.25 1009.14 1008.99 1008.83 1008.48 1008.18 1007.98 1007.78 1007.79 1007.12 1006.29 1006.21 1005.70 1005.02 1004.58 1004.23 1003.81 1003.24 1002.89 1002.49 1002.47 1002.48 1002.47 1002.36 1002.38
1020.53 1020.68 1020.84 1021.03 1021.17 1021.28 1021.39 1021.36 1021.26 1021.20 1021.08 1020.94 1020.72 1020.48 1020.25 1020.04 1019.73 1018.66 1017.69 1018.41 1018.48 1017.48 1016.89 1014.51 1010.53 1008.95 1008.62 1008.88 1009.17 1009.31 1009.34 1009.16 1009.12 1008.97 1008.71 1008.45 1008.19 1008.16 1007.72 1006.95 1006.48 1006.36 1006.15 1005.20 1004.90 1004.59 1003.62 1002.92 1002.55 1002.42 1002.59 1002.39 1002.12 1001.86
1020.44 1020.66 1020.91 1021.05 1021.22 1021.30 1021.32 1021.24 1021.12 1020.98 1020.84 1020.64 1020.39 1020.13 1019.40 1019.10 1017.83 1017.86 1018.25 1018.32 1017.83 1017.81 1016.54 1014.76 1011.88 1010.21 1009.44 1009.35 1009.18 1009.33 1009.86 1009.61 1008.93 1008.40 1008.26 1008.70 1008.45 1008.60 1009.10 1009.01 1008.56 1008.17 1007.65 1006.81 1006.11 1005.12 1004.33 1003.40 1002.64 1002.59 1002.34 1002.12 1002.44 1002.14
1020.33 1020.59 1020.91 1021.06 1021.20 1021.24 1021.26 1021.16 1020.95 1020.75 1020.48 1020.18 1020.00 1018.73 1017.63 1017.51 1017.97 1018.12 1018.18 1017.41 1017.45 1016.80 1016.36 1013.97 1011.70 1010.80 1010.62 1010.11 1010.26 1010.64 1010.36 1010.08 1009.74 1010.09 1009.49 1008.96 1008.76 1009.24 1009.51 1009.49 1008.98 1008.56 1008.10 1007.40 1006.37 1005.33 1004.47 1003.45 1002.89 1002.49 1002.53 1002.21 1001.82 1001.83
1020.33 1020.52 1020.88 1021.07 1021.09 1021.13 1021.17 1021.03 1020.85 1020.49 1019.59 1019.03 1018.59 1017.80 1017.40 1017.56 1017.33 1016.84 1016.43 1015.95 1015.25 1014.96 1014.00 1012.24 1011.29 1011.00 1010.81 1011.19 1011.34 1011.61 1011.14 1010.81 1010.81 1011.41 1011.03 1009.78 1008.77 1009.22 1009.07 1008.94 1008.53 1008.16 1007.73 1007.08 1006.26 1005.32 1004.51 1003.60 1002.99 1002.67 1002.23 1001.78 1001.09 1001.05
1020.40 1020.53 1020.73 1021.01 1021.07 1021.08 1021.02 1020.90 1020.67 1019.93 1019.55 1019.97 1019.79 1018.33 1016.94 1016.67 1016.36 1015.85 1014.41 1013.60 1013.29 1012.21 1011.77 1011.24 1010.73 1011.08 1011.72 1011.63 1011.86 1012.33 1012.42 1012.23 1011.59 1011.96 1011.64 1010.28 1008.95 1009.04 1008.91 1008.35 1007.69 1007.22 1006.69 1006.01 1005.45 1004.54 1003.80 1003.01 1002.28 1001.74 1001.39 1001.20 1001.08 1000.48
1020.39 1020.56 1020.67 1020.89 1020.98 1021.05 1020.94 1020.85 1020.74 1020.48 1019.96 1018.74 1019.07 1017.63 1016.86 1016.07 1015.39 1014.04 1012.75 1011.88 1011.57 1010.92 1011.01 1010.38 1010.66 1011.46 1011.95 1012.44 1012.74 1013.16 1012.90 1012.42 1012.19 1011.92 1011.32 1009.93 1009.00 1008.51 1008.23 1007.56 1006.70 1006.17 1005.54 1004.97 1004.05 1003.22 1002.54 1001.81 1001.12 1000.69 1000.48 1000.49 1000.45 1000.14
1020.38 1020.49 1020.65 1020.83 1020.88 1020.92 1020.81 1020.69 1020.53 1020.20 1019.64 1018.15 1017.54 1016.91 1015.52 1013.88 1012.89 1011.68 1011.60 1011.42 1011.00 1010.93 1010.74 1010.28 1010.69 1011.59 1012.36 1012.84 1013.06 1013.12 1012.83 1012.81 1012.19 1011.71 1010.61 1009.02 1008.34 1007.66 1006.79 1005.75 1005.91 1005.03 1004.55 1003.97 1003.19 1002.36 1001.61 1000.84 1000.28 999.98 999.84 999.70 999.69 999.45
1020.29 1020.39 1020.58 1020.57 1020.62 1020.67 1020.67 1020.58 1020.38 1019.72 1018.87 1016.97 1015.79 1014.73 1012.80 1011.40 1010.24 1010.36 1010.91 1011.04 1010.85 1010.82 1010.25 1010.18 1010.87 1011.55 1012.06 1012.37 1012.72 1012.82 1012.47 1011.97 1011.72 1010.60 1009.35 1008.41 1007.76 1007.16 1006.36 1005.68 1004.85 1004.47 1003.83 1003.17 1002.38 1001.73 1001.04 1000.35 999.82 999.42 999.26 999.11 998.94 998.67
1020.15 1020.28 1019.94 1020.09 1020.34 1020.51 1020.55 1020.30 1019.64 1019.07 1017.67 1015.97 1014.63 1012.90 1011.33 1010.45 1010.13 1010.26 1010.64 1010.67 1010.73 1010.38 1009.99 1010.37 1010.77 1010.84 1011.19 1011.29 1011.47 1011.28 1010.88 1010.75 1010.29 1010.02 1009.30 1008.21 1007.12 1006.88 1006.26 1005.61 1004.77 1004.16 1003.35 1002.68 1001.79 1001.21 1000.54 1000.09 999.66 999.54 999.33 999.05 998.68 998.25
1020.21 1019.33 1019.71 1020.04 1020.22 1020.34 1020.35 1019.79 1018.97 1018.24 1016.57 1015.10 1013.25 1012.07 1011.26 1010.58 1009.98 1009.77 1010.09 1010.28 1010.85 1010.57 1010.35 1010.38 1010.36 1010.38 1010.36 1010.45 1010.18 1010.16 1010.05 1010.08 1010.02 1009.28 1008.81 1008.02 1007.69 1007.17 1006.46 1005.67 1004.84 1004.07 1003.41 1002.87 1001.99 1001.29 1000.88 1000.47 1000.18 999.91 999.46 999.18 998.93 998.12
1019.76 1019.41 1019.77 1020.06 1020.08 1019.83 1019.42 1019.05 1018.26 1017.47 1015.82 1014.05 1012.49 1010.93 1010.14 1009.78 1009.71 1009.42 1009.47 1009.81 1009.97 1010.20 1010.35 1010.38 1010.44 1009.98 1009.93 1009.59 1009.64 1009.26 1009.58 1009.53 1009.03 1008.77 1008.42 1008.10 1007.66 1007.28 1006.70 1005.85 1005.29 1004.51 1003.64 1003.40 1002.69 1001.94 1001.84 1001.41 1001.07 1000.87 1000.33 999.77 999.16 998.40
1020.03 1019.55 1019.91 1020.00 1019.74 1019.65 1018.67 1018.18 1017.87 1016.13 1013.82 1012.07 1010.98 1010.39 1009.85 1009.73 1009.52 1009.42 1009.47 1009.46 1009.89 1010.08 1010.33 1009.71 1009.89 1009.35 1009.67 1009.59 1009.07 1008.78 1009.39 1009.53 1009.18 1008.69 1008.45 1008.12 1007.79 1007.46 1006.86 1006.29 1005.71 1005.34 1004.67 1004.18 1003.81 1003.21 1002.80 1002.40 1002.21 1001.87 1001.29 1000.42 999.65 998.74
1019.93 1020.00 1019.99 1019.93 1019.81 1018.82 1018.04 1017.07 1016.55 1015.64 1013.29 1011.67 1011.17 1010.94 1010.84 1010.50 1010.39 1010.01 1009.45 1009.02 1009.15 1009.70 1009.88 1009.66 1009.11 1008.93 1008.63 1008.43 1008.35 1009.00 1009.46 1009.41 1009.06 1008.35 1008.38 1008.19 1007.93 1007.61 1007.30 1006.84 1006.37 1005.99 1005.56 1005.08 1004.73 1004.35 1003.88 1003.33 1003.17 1003.03 1002.88 1002.12 1000.32 1000.94
1019.74 1018.81 1019.71 1019.61 1018.52 1018.13 1017.46 1016.13 1015.44 1014.07 1013.00 1012.04 1011.27 1011.03 1010.88 1010.58 1010.21 1009.89 1009.08 1008.85 1008.65 1008.75 1009.04 1008.76 1008.42 1008.57 1008.65 1008.89 1008.99 1009.31 1009.45 1009.28 1008.93 1008.64 1008.82 1008.66 1008.26 1007.77 1007.40 1007.30 1007.01 1006.61 1006.23 1006.01 1005.85 1005.58 1005.14 1005.04 1004.88 1004.48 1004.20 1003.81 1003.68 1002.63
1019.24 1019.12 1018.65 1018.78 1018.17 1017.64 1016.44 1014.58 1013.61 1013.02 1012.84 1011.50 1010.87 1010.83 1010.56 1010.43 1010.11 1009.51 1009.33 1008.93 1008.77 1008.70 1008.74 1008.85 1008.91 1009.05 1008.92 1008.99 1009.22 1009.26 1009.18 1009.11 1008.80 1008.67 1008.71 1008.42 1007.97 1007.81 1007.46 1007.34 1007.06 1007.07 1006.96 1006.97 1006.86 1006.66 1006.41 1006.14 1006.17 1005.92 1005.58 1005.48 1005.29 1005.11
1019.43 1018.91 1018.19 1017.92 1017.26 1016.72 1015.61 1013.97 1013.56 1013.19 1012.49 1011.12 1010.58 1010.71 1010.26 1010.06 1009.54 1009.57 1009.76 1009.41 1009.45 1009.09 1009.45 1009.72 1009.86 1009.58 1009.49 1009.42 1009.27 1009.13 1008.94 1008.64 1008.34 1007.89 1007.34 1007.65 1007.65 1007.43 1006.95 1006.64 1006.46 1006.14 1006.64 1007.12 1007.16 1007.00 1007.10 1007.15 1007.02 1006.96 1006.87 1006.75 1006.57 1006.55
1019.36 1018.65 1017.50 1016.72 1016.16 1015.34 1014.25 1013.69 1013.02 1012.12 1011.34 1010.74 1010.45 1010.00 1009.92 1010.01 1009.97 1009.90 1009.56 1009.70 1009.73 1009.66 1009.93 1010.21 1009.97 1009.98 1009.85 1009.51 1009.38 1009.08 1008.23 1007.71 1007.60 1007.39 1007.20 1007.20 1007.22 1006.79 1006.14 1005.77 1005.60 1005.63 1005.66 1005.89 1006.24 1006.40 1006.75 1007.05 1006.96 1007.02 1006.99 1006.84 1006.94 1007.02
1019.45 1018.33 1017.15 1016.21 1015.14 1014.49 1013.51 1012.39 1011.78 1011.14 1010.74 1010.08 1010.10 1009.99 1010.07 1010.16 1010.08 1009.94 1009.74 1009.92 1009.97 1010.04 1010.40 1010.51 1010.59 1010.14 1010.06 1009.48 1009.18 1008.70 1007.98 1007.22 1007.14 1007.21 1007.52 1006.98 1006.85 1006.30 1005.97 1006.04 1006.15 1006.33 1006.18 1006.12 1005.97 1005.97 1006.05 1006.28 1006.48 1006.46 1006.54 1006.83 1007.13 1007.28
1018.46 1017.15 1016.09 1014.27 1013.62 1013.13 1011.96 1011.10 1010.87 1010.30 1010.00 1009.99 1009.78 1010.04 1010.14 1010.17 1010.05 1010.06 1010.20 1010.12 1010.01 1010.21 1010.87 1010.74 1010.89 1010.45 1010.03 1009.53 1009.38 1008.83 1008.03 1007.86 1007.33 1007.27 1007.20 1006.89 1006.73 1006.52 1006.50 1006.72 1006.93 1007.13 1006.89 1006.79 1006.68 1006.62 1006.59 1006.62 1006.66 1006.62 1006.79 1007.04 1007.35 1007.32
1017.37 1015.59 1014.31 1013.11 1012.63 1012.12 1011.21 1010.83 1010.28 1010.18 1009.86 1009.53 1009.38 1009.70 1010.03 1009.93 1009.84 1009.84 1009.80 1010.11 1010.42 1010.58 1011.11 1011.48 1011.14 1010.94 1009.77 1009.25 1008.72 1008.31 1007.77 1007.74 1007.69 1007.54 1007.51 1007.28 1007.17 1007.52 1007.88 1008.15 1008.64 1008.75 1008.51 1007.86 1007.51 1007.30 1007.25 1007.34 1007.46 1007.48 1007.48 1007.47 1007.49 1007.51
1015.93 1014.45 1013.26 1012.34 1011.70 1011.35 1011.15 1010.61 1009.89 1009.57 1009.36 1009.33 1009.32 1009.15 1009.03 1009.31 1009.74 1009.82 1009.81 1010.35 1010.95 1011.36 1011.09 1011.00 1011.03 1010.75 1009.55 1008.39 1008.19 1007.83 1007.88 1007.80 1007.37 1007.25 1007.30 1007.31 1007.41 1007.71 1008.31 1008.93 1009.32 1009.47 1009.49 1009.42 1008.79 1008.07 1008.12 1008.19 1008.22 1008.19 1008.19 1008.17 1008.18 1008.17
1014.62 1013.05 1012.29 1011.60 1011.29 1010.80 1010.36 1010.26 1009.59 1009.50 1009.40 1009.22 1009.10 1009.27 1009.38 1009.65 1009.68 1009.86 1010.29 1010.64 1010.99 1011.33 1011.14 1010.90 1010.92 1010.46 1009.75 1008.92 1008.36 1007.87 1007.80 1007.58 1007.45 1007.36 1007.31 1007.44 1007.52 1007.87 1007.98 1008.35 1008.71 1008.85 1009.36 1009.74 1009.92 1009.64 1009.54 1009.24 1009.21 1008.89 1008.33 1008.42 1008.73 1009.03
1012.59 1011.91 1011.46 1011.03 1010.70 1010.19 1009.82 1009.56 1009.67 1009.64 1009.30 1009.21 1009.17 1009.28 1009.22 1010.39 1010.82 1011.14 1011.15 1011.28 1011.32 1011.32 1011.17 1010.93 1010.47 1009.67 1009.26 1008.92 1008.11 1007.95 1007.63 1007.52 1007.50 1007.42 1007.53 1007.76 1007.97 1008.28 1008.46 1008.58 1008.63 1008.66 1008.70 1008.72 1008.97 1009.51 1010.01 1009.96 1009.78 1009.41 1009.37 1009.25 1009.16 1009.42
1010.74 1010.52 1010.70 1010.55 1010.12 1009.63 1009.21 1009.11 1008.86 1009.01 1009.23 1009.25 1009.18 1009.47 1010.02 1010.99 1011.33 1011.34 1011.19 1010.99 1011.09 1011.10 1010.75 1010.15 1009.78 1009.37 1009.17 1009.25 1008.58 1008.16 1008.01 1008.50 1008.93 1009.01 1008.63 1008.59 1008.83 1009.08 1009.05 1008.99 1009.01 1009.18 1009.27 1009.41 1009.47 1009.50 1009.44 1009.53 1009.74 1009.93 1010.02 1010.05 1010.10 1010.02
1009.60 1009.47 1009.55 1009.43 1009.04 1008.60 1008.63 1008.87 1008.84 1008.81 1008.73 1008.88 1009.24 1009.81 1010.64 1011.26 1011.07 1010.77 1010.30 1010.38 1010.30 1010.11 1009.67 1009.37 1008.98 1008.82 1009.23 1008.65 1008.54 1008.45 1008.18 1008.72 1009.16 1009.77 1009.83 1009.73 1009.80 1009.86 1009.49 1009.45 1009.46 1009.49 1009.52 1009.73 1009.91 1010.02 1010.15 1010.23 1010.40 1010.31 1010.42 1010.60 1010.61 1010.63
1008.97 1008.97 1009.05 1009.20 1008.85 1008.70 1008.66 1008.82 1009.16 1009.06 1009.32 1009.83 1010.30 1010.56 1010.64 1010.95 1010.49 1009.36 1008.62 1008.63 1008.68 1008.04 1007.39 1007.49 1007.96 1007.83 1008.01 1008.69 1008.92 1009.53 1010.15 1010.84 1011.21 1011.28 1011.42 1011.47 1011.37 1011.05 1010.21 1010.28 1010.15 1010.05 1010.01 1010.00 1010.21 1010.55 1010.79 1010.92 1010.98 1011.02 1011.04 1011.13 1011.11 1011.09
Thickness
5623 5623 5623 5622 5622 5622 5620 5618 5615 5612 5610 5607 5605 5604 5603 5603 5604 5605 5621 5621 5618 5625 5640 5648 5650 5644 5649 5652 5646 5663 5661 5670 5665 5657 5662 5669 5674 5687 5688 5698 5696 5693 5688 5680 5686 5683 5674 5715 5724 5697 5709 5734 5731 5726
5619 5619 5619 5619 5619 5618 5615 5612 5609 5605 5601 5598 5596 5594 5592 5590 5589 5590 5607 5612 5610 5606 5623 5634 5635 5638 5637 5637 5634 5640 5641 5645 5651 5646 5654 5659 5662 5677 5678 5669 5702 5676 5690 5667 5677 5680 5699 5702 5699 5702 5704 5705 5710 5711
5616 5616 5616 5615 5614 5612 5609 5605 5601 5596 5592 5589 5586 5583 5581 5578 5575 5573 5582 5590 5598 5605 5621 5636 5637 5646 5642 5638 5637 5620 5631 5639 5640 5645 5636 5635 5634 5657 5652 5663 5668 5675 5681 5665 5667 5685 5685 5685 5685 5687 5690 5687 5683 5697
5613 5612 5611 5610 5609 5605 5602 5597 5592 5588 5584 5580 5576 5573 5570 5567 5566 5564 5571 5581 5584 5586 5598 5630 5641 5630 5635 5635 5631 5627 5622 5625 5625 5626 5623 5625 5628 5649 5644 5650 5648 5657 5662 5654 5659 5668 5672 5678 5678 5673 5674 5672 5668 5663
5608 5607 5606 5604 5601 5598 5593 5589 5584 5580 5576 5572 5568 5565 5562 5561 5559 5559 5566 5577 5577 5569 5583 5598 5617 5631 5634 5627 5621 5620 5615 5614 5614 5611 5616 5618 5632 5633 5638 5641 5640 5653 5647 5641 5641 5654 5653 5658 5663 5664 5659 5661 5651 5639
5602 5601 5599 5596 5593 5589 5585 5581 5577 5574 5569 5565 5562 5560 5557 5555 5553 5559 5571 5570 5565 5566 5563 5586 5619 5622 5623 5621 5615 5610 5610 5609 5610 5610 5613 5622 5628 5615 5612 5620 5637 5641 5645 5644 5638 5649 5650 5653 5657 5661 5657 5659 5661 5657
5596 5594 5591 5588 5585 5581 5577 5575 5571 5568 5564 5561 5558 5556 5554 5552 5552 5562 5563 5557 5555 5558 5557 5572 5602 5618 5618 5614 5609 5605 5609 5607 5606 5606 5605 5606 5609 5609 5610 5609 5619 5628 5635 5637 5640 5640 5637 5644 5643 5651 5652 5655 5657 5658
5589 5586 5583 5580 5577 5574 5571 5569 5566 5563 5560 5558 5556 5555 5554 5552 5552 5561 5563 5554 5551 5555 5554 5565 5596 5607 5618 5603 5597 5605 5598 5601 5600 5598 5601 5598 5605 5602 5599 5614 5619 5618 5617 5625 5625 5627 5632 5637 5642 5641 5641 5644 5645 5649
5581 5578 5575 5573 5570 5567 5565 5564 5562 5560 5558 5556 5555 5555 5556 5558 5567 5562 5554 5552 5552 5551 5551 5562 5578 5583 5609 5602 5606 5601 5593 5589 5603 5602 5604 5597 5596 5589 5588 5586 5593 5596 5597 5603 5610 5617 5621 5626 5632 5631 5634 5636 5628 5635
5574 5571 5567 5566 5563 5561 5559 5558 5558 5557 5557 5557 5556 5566 5568 5566 5559 5555 5555 5556 5550 5554 5553 5569 5593 5586 5593 5593 5590 5585 5589 5586 5584 5585 5592 5591 5595 5588 5584 5584 5589 5590 5590 5593 5597 5604 5612 5619 5624 5627 5626 5631 5634 5634
5566 5564 5560 5558 5557 5556 5554 5553 5553 5555 5559 5566 5566 5567 5566 5562 5563 5562 5560 5561 5567 5563 5573 5588 5593 5587 5596 5582 5578 5580 5581 5587 5579 5572 5574 5587 5596 5589 5589 5588 5588 5588 5588 5590 5594 5602 5609 5615 5618 5620 5624 5631 5639 5632
5557 5556 5554 5551 5550 5550 5549 5549 5549 5554 5556 5552 5551 5558 5567 5564 5561 5561 5572 5580 5576 5582 5589 5589 5596 5594 5583 5588 5579 5575 5568 5572 5577 5574 5569 5577 5599 5591 5587 5590 5593 5595 5594 5596 5599 5605 5610 5616 5622 5626 5629 5632 5633 5639
5549 5548 5547 5544 5544 5543 5544 5543 5543 5545 5547 5553 5551 5557 5556 5561 5551 5565 5574 5584 5583 5595 5593 5601 5594 5588 5584 5580 5574 5566 5567 5571 5578 5569 5572 5586 5596 5592 5590 5595 5599 5600 5602 5604 5610 5615 5619 5624 5631 5633 5634 5634 5633 5635
5540 5540 5539 5537 5537 5538 5538 5539 5539 5540 5544 5553 5553 5536 5561 5569 5576 5588 5585 5584 5593 5592 5592 5600 5594 5586 5578 5572 5571 5567 5573 5567 5567 5563 5574 5593 5597 5599 5600 5603 5602 5607 5609 5610 5615 5620 5624 5630 5634 5637 5638 5639 5636 5638
5533 5533 5532 5532 5533 5533 5532 5533 5534 5537 5543 5557 5564 5553 5579 5595 5605 5601 5593 5589 5593 5595 5598 5597 5590 5586 5580 5577 5574 5570 5572 5572 5569 5578 5591 5604 5604 5603 5607 5609 5611 5611 5613 5616 5621 5623 5628 5632 5636 5638 5639 5641 5641 5643
5526 5527 5529 5529 5528 5527 5527 5529 5533 5537 5546 5558 5565 5575 5591 5594 5593 5592 5587 5585 5592 5597 5601 5595 5587 5587 5584 5587 5582 5582 5586 5581 5590 5591 5595 5602 5608 5606 5607 5609 5613 5613 5618 5620 5625 5628 5631 5634 5636 5636 5638 5639 5642 5646
5518 5528 5525 5523 5523 5522 5522 5528 5532 5536 5548 5555 5568 5581 5584 5587 5589 5592 5590 5589 5589 5588 5584 5589 5585 5585 5597 5589 5590 5595 5592 5592 5592 5597 5598 5602 5602 5602 5604 5607 5610 5616 5619 5621 5624 5629 5632 5634 5633 5632 5633 5634 5638 5649
5514 5517 5518 5516 5518 5519 5523 5526 5531 5534 5541 5557 5567 5582 5591 5593 5590 5593 5594 5593 5591 5587 5587 5584 5590 5590 5588 5593 5592 5605 5600 5600 5602 5600 5602 5604 5604 5602 5602 5604 5607 5613 5619 5619 5621 5621 5625 5628 5629 5629 5631 5638 5643 5649
5504 5510 5509 5510 5513 5517 5523 5526 5528 5537 5557 5573 5582 5587 5591 5590 5593 5593 5592 5594 5592 5592 5587 5593 5585 5591 5587 5591 5602 5608 5603 5597 5600 5602 5604 5604 5604 5602 5602 5603 5605 5607 5611 5613 5616 5620 5623 5624 5624 5626 5631 5635 5640 5650
5497 5498 5501 5504 5506 5515 5520 5528 5534 5534 5554 5570 5575 5574 5574 5577 5579 5583 5589 5594 5593 5587 5582 5583 5592 5598 5603 5609 5614 5606 5601 5599 5600 5606 5604 5604 5604 5603 5599 5600 5602 5604 5607 5610 5611 5611 5615 5618 5619 5618 5619 5621 5625 5626
5491 5499 5496 5498 5510 5513 5518 5528 5532 5545 5553 5559 5568 5569 5569 5574 5574 5576 5587 5594 5593 5591 5585 5597 5604 5609 5610 5609 5609 5605 5600 5602 5601 5604 5598 5596 5601 5603 5603 5602 5600 5602 5605 5603 5604 5605 5607 5606 5606 5609 5609 5611 5609 5609
5488 5490 5497 5498 5505 5509 5520 5538 5544 5550 5550 5561 5567 5568 5567 5566 5569 5579 5586 5586 5588 5592 5596 5598 5601 5602 5605 5605 5604 5604 5603 5603 5603 5601 5595 5599 5604 5601 5604 5602 5604 5601 5598 5597 5597 5598 5599 5598 5598 5598 5601 5602 5601 5599
5479 5485 5494 5498 5505 5506 5513 5537 5535 5539 5542 5558 5567 5560 5566 5569 5578 5583 5573 5580 5581 5592 5591 5591 5592 5598 5600 5602 5604 5605 5603 5606 5602 5608 5614 5608 5608 5608 5610 5611 5611 5613 5605 5599 5599 5601 5598 5593 5593 5593 5593 5593 5594 5593
5471 5481 5493 5501 5508 5513 5528 5529 5538 5546 5555 5559 5561 5565 5567 5568 5575 5571 5573 5574 5580 5586 5585 5584 5590 5591 5595 5599 5595 5599 5610 5614 5610 5611 5612 5612 5606 5612 5620 5622 5622 5621 5619 5616 5611 5609 5605 5600 5598 5598 5597 5598 5597 5594
5465 5476 5488 5482 5511 5517 5524 5536 5543 5551 5551 5562 5561 5562 5563 5568 5564 5566 5569 5572 5575 5578 5578 5580 5582 5590 5588 5596 5600 5604 5610 5615 5612 5610 5605 5613 5612 5617 5621 5620 5617 5616 5618 5614 5613 5613 5611 5609 5607 5606 5604 5603 5598 5595
5467 5483 5489 5512 5519 5523 5536 5542 5545 5553 5558 5557 5562 5563 5564 5561 5560 5559 5562 5569 5574 5576 5573 5577 5577 5584 5587 5595 5593 5597 5606 5609 5611 5608 5611 5615 5614 5615 5614 5610 5608 5607 5612 5612 5610 5608 5607 5606 5604 5604 5602 5597 5590 5594
5468 5493 5506 5520 5525 5530 5539 5546 5553 5552 5553 5556 5563 5560 5557 5556 5557 5564 5570 5571 5571 5574 5572 5570 5574 5574 5587 5591 5600 5606 5611 5611 5608 5608 5611 5613 5613 5610 5604 5599 5594 5595 5599 5602 5604 5604 5601 5599 5596 5595 5593 5592 5591 5590
5482 5499 5507 5521 5529 5536 5533 5540 5549 5552 5556 5561 5561 5559 5562 5561 5557 5564 5569 5569 5567 5566 5572 5575 5576 5579 5591 5602 5605 5608 5606 5608 5611 5612 5612 5612 5612 5609 5603 5597 5593 5588 5589 5588 5593 5597 5596 5593 5591 5589 5587 5585 5584 5584
5489 5509 5517 5522 5527 5535 5540 5540 5550 5553 5557 5558 5556 5555 5558 5562 5566 5567 5566 5566 5566 5565 5568 5572 5573 5580 5588 5597 5602 5605 5605 5606 5603 5601 5601 5600 5602 5601 5605 5601 5596 5594 5588 5583 5577 5580 5581 5581 5581 5582 5584 5581 5576 5573
5506 5518 5521 5526 5529 5534 5543 5549 5547 5552 5558 5560 5562 5563 5565 5554 5554 5555 5556 5556 5558 5561 5565 5569 5575 5584 5587 5589 5597 5598 5605 5607 5607 5605 5600 5598 5598 5599 5597 5595 5593 5593 5591 5589 5586 5579 5571 5571 5571 5572 5569 5568 5568 5563
5528 5531 5527 5528 5532 5542 5549 5554 5559 5559 5558 5558 5563 5559 5556 5548 5548 5549 5550 5554 5555 5558 5565 5573 5579 5584 5587 5583 5592 5595 5596 5598 5596 5595 5599 5598 5595 5592 5591 5590 5588 5585 5582 5578 5575 5574 5574 5570 5566 5561 5558 5555 5553 5552
5538 5537 5537 5538 5545 5555 5556 5553 5555 5558 5561 5561 5560 5558 5550 5542 5545 5553 5562 5563 5563 5566 5576 5580 5584 5586 5585 5593 5595 5598 5601 5597 5593 5589 5588 5588 5586 5585 5586 5584 5581 5578 5575 5570 5566 5563 5560 5556 5552 5551 5548 5545 5543 5542
5543 5544 5544 5543 5549 5552 5556 5556 5552 5556 5556 5552 5548 5548 5550 5548 5553 5570 5581 5583 5582 5588 5595 5597 5595 5598 5598 5593 5592 5588 5583 5578 5572 5570 5569 5567 5566 5569 5577 5573 5571 5568 5565 5562 5558 5553 5548 5545 5542 5540 5538 5535 5533 5532